Terminal Aerodrome Forecast
Issued by NWS Wilmington, NC

Home | Current Version | Previous Version | Text Only | Print | Product List | Glossary On
Versions: 1 2 3 4 5 6 7 8 9 10 11 12 13 14 15 16
000
FTUS42 KILM 231400 AAA
TAFFLO
TAF AMD
KFLO 231411Z 2314/2412 04011KT P6SM -RA SCT010 BKN040 OVC100
      TEMPO 2314/2316 BKN010
     FM232200 03012KT P6SM SCT040 BKN100=

USA.gov is the U.S. government's official web portal to all federal, state and local government web resources and services.